Location: Isola Pescaroli
(45.0500°N, 10.1667°E)
Time: 09:08:15
(UTC+00:00)

CSL-04 Rocket - Pass Details

Date: 03 March 2021
Orbit: 805 x 861 km, 98.9° (Epoch: 18 April)

Event Time Altitude Azimuth Distance (km) Brightness Sun altitude
Rises 18:20:50 0° 162° (SSE) 3,424 6.6 -13.4°
Reaches altitude 10° 18:23:12 10° 161° (SSE) 2,490 5.9 -13.8°
Maximum altitude 18:28:45 85° 74° (ENE) 866 3.7 -14.8°
Drops below altitude 10° 18:34:17 10° 347° (NNW) 2,486 6.4 -15.7°
Sets 18:36:39 0° 347° (NNW) 3,419 7.1 -16.2°
